[[{"header":{"parameterUnit":"m.s-1","parameterCategory":2,"la1":30.2992,"la2":30.254,"lo1":-89.0895,"lo2":-89.0443,"dy":0.0025,"dx":0.0025,"nx":19,"ny":19,"refTime":"2026-03-27T03:00:00:Z","depth":"0","parameterNumber":2,"parameterNumberName":"U-component_of_CURRENTS"},"data":[0,0,0,-0.1344,-0.1345,-0.1358,-0.1358,-0.1341,-0.1341,0,0,0,0,0,0,0,0,0,0,0,-0.1332,-0.1332,-0.1344,-0.1345,-0.1358,-0.1358,-0.1341,-0.1341,0,0,0,0,0,0,0,0,0,0,0,-0.1332,-0.1332,-0.1332,-0.1345,-0.1358,-0.1358,-0.1341,-0.1337,0,0,0,0,0,0,0,0,0,0,-0.1328,-0.1323,-0.1332,-0.1332,-0.1345,-0.1358,-0.1358,-0.1338,-0.1338,-0.1328,0,-0.1331,0,-0.1342,-0.1339,-0.1339,0,0,0,-0.1337,-0.1323,-0.1331,-0.1333,-0.1345,-0.1358,-0.135,-0.1338,-0.1338,-0.1328,-0.1331,-0.1331,-0.1342,-0.1339,-0.1339,-0.1326,-0.1326,0,0,-0.1336,-0.1329,-0.1331,-0.1331,-0.135,-0.1349,-0.135,-0.1338,-0.1335,-0.1331,-0.1331,-0.1341,-0.1339,-0.1339,-0.1326,-0.1326,0,0,0,-0.1339,-0.1329,-0.1337,-0.1332,-0.134,-0.135,-0.1351,-0.1335,-0.134,-0.1331,-0.1341,-0.1339,-0.1339,-0.1326,-0.1326,-0.1338,0,0,0,-0.1339,-0.1332,-0.1337,-0.1332,-0.1341,-0.1343,-0.1348,-0.134,-0.134,-0.1341,-0.1339,-0.1339,-0.1326,-0.1326,-0.1337,-0.1334,0,0,0,-0.1331,-0.1331,-0.1334,-0.1332,-0.1343,-0.1344,-0.1347,-0.134,-0.1346,-0.1339,-0.1339,-0.1326,-0.1326,-0.1337,-0.1333,-0.135,0,0,0,-0.1322,-0.1324,-0.1333,-0.1337,-0.1343,-0.1349,-0.1347,-0.1345,-0.1339,-0.1339,-0.1326,-0.1326,-0.1337,-0.1333,-0.135,-0.1455,-0.1466,0,0,-0.132,-0.1324,-0.1326,-0.1335,-0.134,-0.1347,-0.1351,-0.1341,-0.1335,-0.1326,-0.1326,-0.1338,-0.1333,-0.135,-0.1453,-0.1464,0,0,0,-0.1322,-0.1322,-0.1326,-0.1331,-0.134,-0.1346,-0.1346,-0.1346,-0.134,-0.1334,-0.1334,-0.133,-0.1341,-0.1404,-0.1412,-0.1632,-0.1326,-0.1326,-0.1326,-0.1306,-0.1314,-0.1312,-0.1322,-0.1329,-0.1342,-0.1348,-0.1347,-0.1341,-0.1341,-0.1337,-0.1352,-0.1419,-0.1427,-0.1652,-0.1339,-0.1339,-0.1339,-0.1339,-0.129,-0.1276,-0.1297,-0.1297,-0.1313,-0.1317,-0.134,-0.1345,-0.1356,-0.1344,-0.1355,-0.1409,-0.1437,-0.1673,-0.134,-0.134,-0.134,-0.134,-0.1339,-0.1254,-0.1246,-0.1258,-0.126,-0.1268,-0.1292,-0.1311,-0.133,-0.1354,-0.1366,-0.144,-0.1441,-0.1652,-0.1374,-0.1374,-0.1374,-0.1374,-0.1374,-0.1374,-0.1201,-0.1213,-0.1202,-0.1217,-0.1213,-0.1231,-0.1286,-0.1324,-0.1412,-0.1455,-0.1456,-0.1698,-0.1363,-0.1365,-0.1375,-0.1375,-0.1375,-0.1375,-0.1375,-0.1129,-0.1148,-0.1125,-0.1123,-0.1131,-0.1188,-0.1258,-0.1426,-0.1472,-0.1546,-0.185,-0.1513,-0.1521,-0.1515,-0.1521,-0.157,-0.157,-0.157,-0.157,-0.1073,-0.1086,-0.1047,-0.1033,-0.1044,-0.1151,-0.1383,-0.1616,-0.1882,-0.2048,-0.2055,-0.2111,-0.2093,-0.2136,-0.2117,-0.2135,-0.234,-0.2341,-0.2342,-0.1018,-0.102,-0.0972,-0.0977,-0.0993,-0.1147,-0.1478,-0.2008,-0.2361,-0.2392,-0.2344,-0.2312,-0.2408,-0.2362,-0.2436,-0.2391,-0.2421,0,0]},{"header":{"parameterUnit":"m.s-1","parameterCategory":2,"la1":30.2992,"la2":30.254,"lo1":-89.0895,"lo2":-89.0443,"dy":0.0025,"dx":0.0025,"nx":19,"ny":19,"refTime":"2026-03-27T03:00:00:Z","depth":"0","parameterNumber":3,"parameterNumberName":"V-component_of_CURRENTS"},"data":[0,0,0,-0.0671,-0.0669,-0.0566,-0.0565,-0.0429,-0.0428,0,0,0,0,0,0,0,0,0,0,0,-0.0704,-0.0704,-0.0671,-0.0669,-0.0566,-0.0565,-0.043,-0.0428,0,0,0,0,0,0,0,0,0,0,0,-0.0704,-0.0704,-0.0703,-0.0668,-0.0566,-0.0565,-0.043,-0.0505,0,0,0,0,0,0,0,0,0,0,-0.0604,-0.0642,-0.0704,-0.0703,-0.0668,-0.0566,-0.0565,-0.0509,-0.05,-0.048,0,-0.047,0,-0.0453,-0.0421,-0.042,0,0,0,-0.0654,-0.0648,-0.0623,-0.0703,-0.0667,-0.0566,-0.0608,-0.0504,-0.0495,-0.0469,-0.0468,-0.0463,-0.0451,-0.042,-0.0419,-0.0339,-0.0339,0,0,-0.066,-0.0679,-0.063,-0.0618,-0.0648,-0.0612,-0.0605,-0.0498,-0.0491,-0.0467,-0.046,-0.0448,-0.0419,-0.0418,-0.0339,-0.0339,0,0,0,-0.0686,-0.0683,-0.066,-0.0623,-0.0609,-0.0609,-0.0601,-0.0495,-0.0488,-0.0458,-0.0447,-0.0418,-0.0417,-0.0339,-0.0339,-0.0391,0,0,0,-0.0689,-0.07,-0.0663,-0.0673,-0.0611,-0.0551,-0.0601,-0.0495,-0.0483,-0.0448,-0.0418,-0.0416,-0.0339,-0.0339,-0.0389,-0.0424,0,0,0,-0.0707,-0.0701,-0.0693,-0.0674,-0.0637,-0.0553,-0.0539,-0.0492,-0.0477,-0.042,-0.0415,-0.0339,-0.0339,-0.0388,-0.0421,-0.0425,0,0,0,-0.0726,-0.0726,-0.0693,-0.0688,-0.0638,-0.0588,-0.0539,-0.0489,-0.0445,-0.0418,-0.0339,-0.0339,-0.0388,-0.042,-0.0423,-0.0522,-0.0537,0,0,-0.0742,-0.0729,-0.0727,-0.0695,-0.0674,-0.06,-0.0563,-0.0486,-0.0437,-0.0371,-0.0369,-0.039,-0.0421,-0.0425,-0.0522,-0.0537,0,0,0,-0.0742,-0.0746,-0.0731,-0.071,-0.0658,-0.0611,-0.0529,-0.0489,-0.0424,-0.0413,-0.0375,-0.0393,-0.0394,-0.045,-0.0461,-0.0443,-0.0339,-0.0339,-0.0339,-0.0802,-0.0776,-0.0772,-0.0733,-0.0697,-0.061,-0.0566,-0.0496,-0.0442,-0.0424,-0.0424,-0.0449,-0.0509,-0.0519,-0.0498,-0.0404,-0.0404,-0.0404,-0.0404,-0.0842,-0.0842,-0.0808,-0.0798,-0.0742,-0.0701,-0.06,-0.0553,-0.0489,-0.0451,-0.0448,-0.0488,-0.0535,-0.0508,-0.0407,-0.0407,-0.0406,-0.0406,-0.0406,-0.089,-0.0883,-0.0877,-0.0855,-0.0829,-0.0753,-0.0723,-0.0632,-0.0549,-0.054,-0.0574,-0.0574,-0.056,-0.053,-0.053,-0.053,-0.053,-0.053,-0.053,-0.0934,-0.0924,-0.093,-0.091,-0.0899,-0.0872,-0.0784,-0.0746,-0.069,-0.0644,-0.0644,-0.0575,-0.0487,-0.0492,-0.0533,-0.0533,-0.0532,-0.0532,-0.0532,-0.0967,-0.0974,-0.0978,-0.0977,-0.096,-0.1021,-0.0935,-0.092,-0.0849,-0.0849,-0.0739,-0.0688,-0.0678,-0.067,-0.0678,-0.0765,-0.0765,-0.0765,-0.0765,-0.0994,-0.0997,-0.1008,-0.1011,-0.1025,-0.1075,-0.123,-0.1221,-0.1028,-0.0937,-0.0822,-0.0818,-0.0809,-0.0805,-0.0793,-0.0802,-0.0919,-0.0919,-0.0919,-0.1001,-0.1009,-0.102,-0.1031,-0.105,-0.1182,-0.1447,-0.1611,-0.1233,-0.0917,-0.0776,-0.077,-0.075,-0.0738,-0.0717,-0.0702,-0.0712,0,0]}],[{"header":{"parameterUnit":"m.s-1","parameterCategory":2,"la1":30.2992,"la2":30.254,"lo1":-89.0895,"lo2":-89.0443,"dy":0.0025,"dx":0.0025,"nx":19,"ny":19,"refTime":"2026-03-27T03:00:00:Z","depth":"2","parameterNumber":2,"parameterNumberName":"U-component_of_CURRENTS"},"data":[0,0,0,-0.1327,-0.1327,-0.1341,-0.1341,-0.1324,-0.1324,0,0,0,0,0,0,0,0,0,0,0,-0.1315,-0.1315,-0.1327,-0.1327,-0.1341,-0.1341,-0.1324,-0.1324,0,0,0,0,0,0,0,0,0,0,0,-0.1315,-0.1315,-0.1315,-0.1328,-0.1341,-0.1341,-0.1324,-0.1321,0,0,0,0,0,0,0,0,0,0,-0.1311,-0.1306,-0.1315,-0.1315,-0.1328,-0.1341,-0.1341,-0.1321,-0.1321,-0.1311,0,-0.1314,0,-0.1325,-0.1323,-0.1323,0,0,0,-0.1319,-0.1306,-0.1314,-0.1315,-0.1328,-0.1341,-0.1333,-0.1321,-0.1321,-0.1311,-0.1314,-0.1314,-0.1325,-0.1323,-0.1323,-0.131,-0.131,0,0,-0.1319,-0.1312,-0.1314,-0.1314,-0.1333,-0.1332,-0.1333,-0.1321,-0.1318,-0.1314,-0.1314,-0.1324,-0.1323,-0.1323,-0.131,-0.131,0,0,0,-0.1322,-0.1311,-0.132,-0.1314,-0.1323,-0.1333,-0.1334,-0.1319,-0.1323,-0.1314,-0.1324,-0.1323,-0.1322,-0.131,-0.131,-0.1321,0,0,0,-0.1321,-0.1314,-0.132,-0.1315,-0.1323,-0.1326,-0.1331,-0.1324,-0.1323,-0.1324,-0.1323,-0.1322,-0.131,-0.131,-0.1321,-0.1317,0,0,0,-0.1314,-0.1313,-0.1316,-0.1315,-0.1326,-0.1327,-0.133,-0.1324,-0.133,-0.1323,-0.1322,-0.131,-0.131,-0.1321,-0.1317,-0.1334,0,0,0,-0.1304,-0.1307,-0.1316,-0.1319,-0.1326,-0.1332,-0.133,-0.1328,-0.1322,-0.1323,-0.131,-0.131,-0.1321,-0.1317,-0.1333,-0.1413,-0.1421,0,0,-0.1303,-0.1306,-0.1309,-0.1318,-0.1323,-0.133,-0.1334,-0.1325,-0.1318,-0.131,-0.131,-0.1321,-0.1317,-0.1334,-0.1411,-0.1419,0,0,0,-0.1305,-0.1305,-0.1308,-0.1314,-0.1322,-0.1329,-0.1329,-0.1329,-0.1323,-0.1318,-0.1317,-0.1314,-0.1324,-0.1371,-0.1378,-0.131,-0.131,-0.131,-0.131,-0.1289,-0.1297,-0.1295,-0.1305,-0.1312,-0.1325,-0.133,-0.133,-0.1324,-0.1324,-0.1321,-0.1336,-0.1386,-0.1392,-0.1322,-0.1323,-0.1323,-0.1323,-0.1323,-0.1274,-0.126,-0.128,-0.128,-0.1296,-0.13,-0.1323,-0.1328,-0.1339,-0.1328,-0.1338,-0.1378,-0.14,-0.1323,-0.1323,-0.1323,-0.1323,-0.1323,-0.1323,-0.1239,-0.123,-0.1242,-0.1244,-0.1252,-0.1275,-0.1295,-0.1313,-0.1337,-0.1349,-0.1406,-0.1407,-0.1346,-0.1357,-0.1357,-0.1357,-0.1357,-0.1357,-0.1357,-0.1185,-0.1198,-0.1187,-0.1201,-0.1198,-0.1214,-0.1269,-0.1307,-0.1384,-0.1418,-0.1419,-0.1348,-0.1346,-0.1348,-0.1358,-0.1358,-0.1358,-0.1358,-0.1358,-0.1114,-0.1133,-0.111,-0.1108,-0.1116,-0.1128,-0.123,-0.1388,-0.144,-0.1506,-0.1468,-0.1465,-0.147,-0.1466,-0.147,-0.1511,-0.1511,-0.1511,-0.1511,-0.1058,-0.1071,-0.1033,-0.1018,-0.1028,-0.1078,-0.1209,-0.1323,-0.1436,-0.1444,-0.1445,-0.1444,-0.1442,-0.1443,-0.1439,-0.1442,-0.1475,-0.1474,-0.1474,-0.1004,-0.1005,-0.0958,-0.0962,-0.0977,-0.1029,-0.1146,-0.1284,-0.1402,-0.1461,-0.1325,-0.1531,-0.1537,-0.153,-0.1537,-0.1528,-0.1536,0,0]},{"header":{"parameterUnit":"m.s-1","parameterCategory":2,"la1":30.2992,"la2":30.254,"lo1":-89.0895,"lo2":-89.0443,"dy":0.0025,"dx":0.0025,"nx":19,"ny":19,"refTime":"2026-03-27T03:00:00:Z","depth":"2","parameterNumber":3,"parameterNumberName":"V-component_of_CURRENTS"},"data":[0,0,0,-0.0623,-0.0621,-0.052,-0.052,-0.0384,-0.0383,0,0,0,0,0,0,0,0,0,0,0,-0.0656,-0.0655,-0.0623,-0.0621,-0.0521,-0.052,-0.0384,-0.0383,0,0,0,0,0,0,0,0,0,0,0,-0.0656,-0.0655,-0.0655,-0.0621,-0.0521,-0.052,-0.0385,-0.0459,0,0,0,0,0,0,0,0,0,0,-0.0556,-0.0593,-0.0656,-0.0655,-0.0621,-0.0521,-0.052,-0.0462,-0.0454,-0.0433,0,-0.0424,0,-0.0407,-0.0375,-0.0375,0,0,0,-0.0606,-0.06,-0.0575,-0.0655,-0.062,-0.0521,-0.0562,-0.0458,-0.0449,-0.0422,-0.0422,-0.0416,-0.0405,-0.0374,-0.0374,-0.0293,-0.0293,0,0,-0.0612,-0.0631,-0.0582,-0.057,-0.0602,-0.0565,-0.0559,-0.0452,-0.0445,-0.0421,-0.0413,-0.0403,-0.0374,-0.0373,-0.0293,-0.0293,0,0,0,-0.0638,-0.0635,-0.0613,-0.0576,-0.0561,-0.0563,-0.0555,-0.0449,-0.0442,-0.0412,-0.0401,-0.0373,-0.0372,-0.0293,-0.0293,-0.0345,0,0,0,-0.0641,-0.0651,-0.0616,-0.0625,-0.0564,-0.0505,-0.0555,-0.0449,-0.0437,-0.0402,-0.0373,-0.037,-0.0293,-0.0293,-0.0344,-0.0378,0,0,0,-0.0659,-0.0653,-0.0645,-0.0626,-0.059,-0.0507,-0.0493,-0.0446,-0.0431,-0.0375,-0.037,-0.0293,-0.0293,-0.0342,-0.0376,-0.0379,0,0,0,-0.0677,-0.0678,-0.0645,-0.0641,-0.0591,-0.0541,-0.0493,-0.0444,-0.04,-0.0372,-0.0293,-0.0293,-0.0342,-0.0374,-0.0377,-0.0432,-0.0443,0,0,-0.0693,-0.068,-0.0679,-0.0648,-0.0626,-0.0554,-0.0517,-0.044,-0.0392,-0.0325,-0.0323,-0.0344,-0.0375,-0.0379,-0.0431,-0.0443,0,0,0,-0.0694,-0.0698,-0.0683,-0.0662,-0.061,-0.0564,-0.0482,-0.0443,-0.0379,-0.0368,-0.0329,-0.0347,-0.0348,-0.0377,-0.0385,-0.0293,-0.0293,-0.0293,-0.0293,-0.0755,-0.0728,-0.0724,-0.0685,-0.0649,-0.0562,-0.0519,-0.0449,-0.0396,-0.0378,-0.0378,-0.0403,-0.0434,-0.0442,-0.0358,-0.0358,-0.0358,-0.0359,-0.0359,-0.0795,-0.0796,-0.076,-0.075,-0.0694,-0.0653,-0.0552,-0.0506,-0.0442,-0.0405,-0.0403,-0.0417,-0.0454,-0.0362,-0.0362,-0.0361,-0.0361,-0.0361,-0.036,-0.0845,-0.0838,-0.0831,-0.0808,-0.0783,-0.0707,-0.0675,-0.0586,-0.0503,-0.0494,-0.0498,-0.0498,-0.044,-0.0484,-0.0484,-0.0485,-0.0485,-0.0485,-0.0485,-0.089,-0.088,-0.0886,-0.0866,-0.0854,-0.0826,-0.0738,-0.07,-0.0624,-0.0564,-0.0564,-0.0445,-0.0441,-0.0446,-0.0488,-0.0487,-0.0487,-0.0487,-0.0486,-0.0924,-0.0931,-0.0935,-0.0934,-0.0915,-0.0901,-0.087,-0.0837,-0.0778,-0.0764,-0.0592,-0.0588,-0.0574,-0.0567,-0.0575,-0.0647,-0.0647,-0.0647,-0.0647,-0.0952,-0.0955,-0.0966,-0.0968,-0.098,-0.0932,-0.0954,-0.0796,-0.0656,-0.0524,-0.0528,-0.0501,-0.05,-0.0478,-0.0472,-0.0476,-0.0522,-0.0521,-0.052,-0.0959,-0.0967,-0.0978,-0.0988,-0.1004,-0.0964,-0.0939,-0.0762,-0.0541,-0.0504,-0.0386,-0.0662,-0.0635,-0.0627,-0.0602,-0.059,-0.0599,0,0]}],[{"header":{"parameterUnit":"m.s-1","parameterCategory":2,"la1":30.2992,"la2":30.254,"lo1":-89.0895,"lo2":-89.0443,"dy":0.0025,"dx":0.0025,"nx":19,"ny":19,"refTime":"2026-03-27T03:00:00:Z","depth":"4","parameterNumber":2,"parameterNumberName":"U-component_of_CURRENTS"},"data":[0,0,0,-0.0849,-0.0851,-0.0923,-0.0924,-0.0958,-0.0958,0,0,0,0,0,0,0,0,0,0,0,-0.0822,-0.0822,-0.0849,-0.0851,-0.0923,-0.0924,-0.0958,-0.0958,0,0,0,0,0,0,0,0,0,0,0,-0.0821,-0.0822,-0.0823,-0.0851,-0.0923,-0.0924,-0.0958,-0.0917,0,0,0,0,0,0,0,0,0,0,-0.0854,-0.0837,-0.0822,-0.0823,-0.0852,-0.0923,-0.0924,-0.0916,-0.092,-0.091,0,-0.0925,0,-0.0944,-0.096,-0.096,0,0,0,-0.0848,-0.0833,-0.0855,-0.0823,-0.0853,-0.0923,-0.089,-0.0918,-0.0923,-0.0915,-0.0926,-0.0928,-0.0945,-0.096,-0.096,-0.0989,-0.0989,0,0,-0.0844,-0.0831,-0.0853,-0.0858,-0.0875,-0.0888,-0.0892,-0.0922,-0.0925,-0.0926,-0.0929,-0.0945,-0.096,-0.096,-0.0989,-0.0989,0,0,0,-0.0835,-0.0828,-0.085,-0.0856,-0.0875,-0.089,-0.0895,-0.0924,-0.0932,-0.0929,-0.0946,-0.096,-0.096,-0.0988,-0.0989,-0.0988,0,0,0,-0.0832,-0.0823,-0.0849,-0.0841,-0.0875,-0.0908,-0.0896,-0.093,-0.0934,-0.0945,-0.096,-0.096,-0.0988,-0.0988,-0.0987,-0.0978,0,0,0,-0.0818,-0.0821,-0.0832,-0.084,-0.0874,-0.0908,-0.0919,-0.0932,-0.0944,-0.096,-0.096,-0.0988,-0.0988,-0.0987,-0.0977,-0.0996,0,0,0,-0.0798,-0.0805,-0.0831,-0.0847,-0.0873,-0.0911,-0.0919,-0.0947,-0.0961,-0.096,-0.0988,-0.0989,-0.0987,-0.0977,-0.0995,-0.0921,0,0,0,-0.0791,-0.0803,-0.0813,-0.0839,-0.0863,-0.09,-0.0929,-0.0952,-0.0963,-0.0973,-0.0975,-0.0988,-0.0977,-0.0996,-0.0946,0,0,0,0,-0.0801,-0.0799,-0.0814,-0.0838,-0.0879,-0.0914,-0.0947,-0.0962,-0.0986,-0.0975,-0.0996,-0.099,-0.1001,-0.0957,-0.0991,-0.099,-0.099,-0.099,-0.099,-0.0736,-0.0773,-0.0785,-0.0829,-0.0864,-0.0922,-0.095,-0.0978,-0.0988,-0.1002,-0.0996,-0.1016,-0.097,-0.1009,-0.1009,-0.1009,-0.1009,-0.1009,-0.1009,-0.0698,-0.07,-0.0759,-0.0787,-0.0848,-0.0887,-0.0949,-0.0971,-0.1006,-0.1006,-0.1018,-0.0967,-0.1009,-0.1009,-0.1009,-0.1009,-0.1009,-0.1009,-0.1009,-0.0631,-0.0641,-0.0678,-0.0734,-0.079,-0.0865,-0.0907,-0.095,-0.0997,-0.1012,-0.0979,-0.102,-0.1013,-0.1025,-0.1025,-0.1025,-0.1025,-0.1025,-0.1025,-0.055,-0.0587,-0.0612,-0.0676,-0.0718,-0.0777,-0.0878,-0.0919,-0.0977,-0.0966,-0.1014,-0.1022,-0.1022,-0.1015,-0.1026,-0.1026,-0.1026,-0.1026,-0.1026,-0.0474,-0.05,-0.053,-0.0565,-0.0649,-0.0682,-0.0784,-0.0881,-0.0919,-0.0939,-0.0949,-0.0953,-0.0948,-0.0949,-0.0939,-0.0929,-0.0928,-0.0927,0,-0.0418,-0.0433,-0.047,-0.0505,-0.0544,-0.062,-0.0677,-0.0763,-0.0844,-0.0813,-0.09,-0.0906,-0.091,-0.0898,-0.0899,-0.0883,0,0,0,-0.0382,-0.0401,-0.0406,-0.0454,-0.0495,-0.0589,-0.0691,-0.0718,-0.0819,-0.0876,-0.0904,-0.091,-0.0988,-0.1028,-0.1028,-0.1028,-0.1017,0,0]},{"header":{"parameterUnit":"m.s-1","parameterCategory":2,"la1":30.2992,"la2":30.254,"lo1":-89.0895,"lo2":-89.0443,"dy":0.0025,"dx":0.0025,"nx":19,"ny":19,"refTime":"2026-03-27T03:00:00:Z","depth":"4","parameterNumber":3,"parameterNumberName":"V-component_of_CURRENTS"},"data":[0,0,0,0.0141,0.0141,0.0156,0.0156,0.0223,0.0224,0,0,0,0,0,0,0,0,0,0,0,0.0141,0.0141,0.0141,0.0141,0.0156,0.0156,0.0223,0.0224,0,0,0,0,0,0,0,0,0,0,0,0.0141,0.0141,0.0141,0.0141,0.0156,0.0156,0.0223,0.0203,0,0,0,0,0,0,0,0,0,0,0.0184,0.0179,0.0141,0.0141,0.0141,0.0156,0.0156,0.0202,0.0205,0.0226,0,0.022,0,0.0216,0.0228,0.0228,0,0,0,0.0156,0.0177,0.017,0.0141,0.0141,0.0156,0.0153,0.0203,0.0206,0.0229,0.0221,0.0223,0.0217,0.0228,0.0229,0.0256,0.0256,0,0,0.0155,0.0158,0.0168,0.0171,0.0136,0.0153,0.0154,0.0205,0.0211,0.0221,0.0224,0.0218,0.0229,0.0229,0.0256,0.0256,0,0,0,0.0143,0.0158,0.0149,0.0169,0.0164,0.0153,0.0154,0.021,0.0203,0.0225,0.0219,0.0229,0.023,0.0256,0.0256,0.0222,0,0,0,0.0143,0.0149,0.0149,0.0153,0.0162,0.0182,0.0158,0.02,0.0205,0.0219,0.0229,0.0231,0.0257,0.0256,0.0223,0.0208,0,0,0,0.0142,0.015,0.0145,0.0153,0.015,0.018,0.0178,0.0201,0.0201,0.0228,0.0231,0.0257,0.0256,0.0224,0.021,0.0202,0,0,0,0.0153,0.0152,0.0146,0.014,0.015,0.0149,0.0177,0.0188,0.0207,0.023,0.0256,0.0256,0.0225,0.0211,0.0204,0.0174,0,0,0,0.0158,0.0153,0.0147,0.0141,0.0137,0.0148,0.0151,0.0187,0.0209,0.0246,0.0247,0.0223,0.021,0.0203,0.0149,0,0,0,0,0.0152,0.0158,0.0152,0.0147,0.0136,0.0134,0.0162,0.0174,0.0198,0.0215,0.0224,0.0217,0.0213,0.0199,0.0254,0.0254,0.0254,0.0254,0.0254,0.0209,0.0182,0.0175,0.0148,0.0137,0.0133,0.0136,0.0158,0.0184,0.0183,0.019,0.0161,0.0145,0.0192,0.0191,0.0191,0.0191,0.0191,0.0191,0.0233,0.0217,0.0185,0.0161,0.0131,0.0119,0.012,0.0129,0.0141,0.0161,0.0159,0.0165,0.0188,0.0188,0.0189,0.0189,0.0189,0.019,0.019,0.0267,0.0246,0.0225,0.017,0.0133,0.0099,0.0068,0.0085,0.011,0.0105,0.0101,0.0142,0.0144,0.0106,0.0106,0.0106,0.0106,0.0106,0.0106,0.0292,0.027,0.0225,0.0174,0.0126,0.0071,0.004,0.0036,0.0061,0.0059,0.0096,0.0133,0.0136,0.014,0.0104,0.0104,0.0105,0.0105,0.0105,0.0295,0.0277,0.0217,0.017,0.0071,0.0034,0.0015,-0.0011,-0.0012,0.0002,0.004,0.0044,0.0056,0.0061,0.0063,0.0003,0.0002,0.0002,0,0.0292,0.0281,0.0192,0.012,0.0037,0.0011,-0.0039,-0.0048,-0.0018,-0.0023,0.0016,0.0059,0.0062,0.0078,0.0081,0.0084,0,0,0,0.0274,0.0251,0.0185,0.011,0.0018,-0.0035,-0.0062,-0.0074,-0.0022,-0.0036,-0.0012,-0.0008,0.0064,0.0099,0.0127,0.013,0.0138,0,0]}]]